Niagara Falls, NY

10:39 AM EST on November 12, 2019 (GMT -0500)
Niagara Falls International

Weather History for KIAG - September, 2019

Change the Weather History Date:

Wednesday, September 11, 2019

  Actual Average Record
Temperature  
Mean Temperature 74 °F -  
Max Temperature 81 °F 73 °F 86 °F (2013)
Min Temperature 66 °F 54 °F 44 °F (2008)
Cooling Degree Days 8    
Growing Degree Days 24 (Base 50)    
Moisture  
Dew Point 68 °F    
Average Humidity 87    
Maximum Humidity 100    
Minimum Humidity 67    
Precipitation  
Precipitation 1.02 in - - ()
Sea Level Pressure  
Sea Level Pressure 30.08 in    
Wind  
Wind Speed 9 mph (WSW)    
Max Wind Speed 23 mph    
Max Gust Speed 37 mph    
Visibility 6 miles    
Events Rain , Thunderstorm    
Averages and records for this station are not official NWS values.
T = Trace of Precipitation, MM = Missing Value Source: NWS Daily Summary

Daily Weather History Graph

Daily Weather History Graph

Search for Another Location

Airport or City:

Astronomy

Sep. 11, 2019 Rise Set
Actual Time 6:50 AM EDT 7:33 PM EDT
Civil Twilight 6:22 AM EDT 8:02 PM EDT
Nautical Twilight 5:47 AM EDT 8:36 PM EDT
Astronomical Twilight 5:12 AM EDT 9:11 PM EDT
Moon 6:49 PM EDT (9/11) 4:05 AM EDT (9/11)
Length of Visible Light 13h 40m
Length of Day
12h 42m
Waxing Gibbous, 94% of the Moon is Illuminated
Sep 11
Waxing Gibbous
Sep 14
Full
Sep 21
Last Quarter
Sep 28
New
Oct 5
First Quarter

Hourly Weather History & Observations

Time (EDT) Temp. Heat Index Dew Point Humidity Pressure Visibility Wind Dir Wind Speed Gust Speed Precip Events Conditions
12:53 AM 75.9 °F - 64.0 °F 67% 30.04 in 10.0 mi SSW 13.8 mph 23.0 mph N/A   Clear
1:15 AM 72.0 °F - 64.9 °F 78% 30.12 in 9.0 mi NW 23.0 mph 36.8 mph 0.00 in Rain , Thunderstorm Light Rain
1:23 AM 69.1 °F - 66.0 °F 90% 30.12 in 1.8 mi WNW 17.3 mph 29.9 mph 0.15 in Rain , Thunderstorm Heavy Rain
1:32 AM 69.1 °F - 66.0 °F 90% 30.11 in 2.0 mi WNW 11.5 mph 23.0 mph 0.23 in Rain , Thunderstorm Heavy Thunderstorms and Rain
1:41 AM 69.1 °F - 66.9 °F 93% 30.09 in 3.0 mi West 6.9 mph - 0.25 in Rain , Thunderstorm Rain
1:53 AM 69.1 °F - 66.9 °F 93% 30.09 in 4.0 mi NNW 9.2 mph - 0.28 in Rain , Thunderstorm Rain
2:02 AM 69.1 °F - 66.9 °F 93% 30.08 in 3.0 mi East 4.6 mph - 0.03 in Rain Rain
2:12 AM 68.0 °F - 66.9 °F 96% 30.08 in 6.0 mi SE 5.8 mph - 0.03 in Rain , Thunderstorm Light Rain
2:22 AM 68.0 °F - 66.9 °F 96% 30.11 in 2.5 mi WNW 5.8 mph - 0.09 in Rain Light Rain
2:26 AM 68.0 °F - 66.9 °F 96% 30.10 in 1.2 mi Variable 4.6 mph - 0.16 in Rain Heavy Rain
2:36 AM 68.0 °F - 66.9 °F 96% 30.08 in 2.0 mi SE 5.8 mph - 0.20 in Rain Light Rain
2:43 AM 68.0 °F - 68.0 °F 100% 30.09 in 5.0 mi NNE 5.8 mph - 0.20 in   Overcast
2:53 AM 68.0 °F - 66.9 °F 96% 30.08 in 2.5 mi NE 5.8 mph - 0.20 in   Overcast
3:00 AM 68.0 °F - 66.9 °F 96% 30.08 in 4.0 mi ENE 5.8 mph - N/A   Overcast
3:20 AM 66.9 °F - 66.0 °F 97% 30.08 in 4.0 mi East 3.5 mph - N/A Thunderstorm Mostly Cloudy
3:53 AM 68.0 °F - 66.9 °F 96% 30.07 in 4.0 mi Calm Calm - 0.01 in Thunderstorm Overcast
4:53 AM 69.1 °F - 66.9 °F 93% 30.06 in 9.0 mi SSW 9.2 mph - 0.00 in   Scattered Clouds
5:53 AM 69.1 °F - 66.9 °F 93% 30.07 in 9.0 mi SW 9.2 mph - N/A   Scattered Clouds
6:53 AM 68.0 °F - 66.0 °F 93% 30.09 in 5.0 mi Calm Calm - N/A   Scattered Clouds
7:53 AM 69.1 °F - 68.0 °F 96% 30.10 in 5.0 mi WSW 6.9 mph - N/A   Clear
8:53 AM 72.0 °F - 69.1 °F 91% 30.11 in 8.0 mi SW 6.9 mph - N/A   Clear
9:46 AM 73.0 °F - 69.1 °F 87% 30.13 in 9.0 mi West 6.9 mph - N/A   Mostly Cloudy
9:53 AM 73.9 °F - 69.1 °F 85% 30.12 in 9.0 mi West 8.1 mph - N/A   Mostly Cloudy
10:39 AM 75.0 °F - 69.1 °F 82% 30.12 in 9.0 mi West 6.9 mph - N/A   Mostly Cloudy
11:53 AM 75.9 °F - 69.1 °F 79% 30.11 in 8.0 mi West 3.5 mph - N/A   Mostly Cloudy
12:53 PM 78.1 °F - 70.0 °F 76% 30.09 in 10.0 mi West 8.1 mph - N/A   Mostly Cloudy
1:36 PM 79.0 °F - 70.0 °F 74% 30.10 in 10.0 mi NW 9.2 mph - N/A   Mostly Cloudy
1:53 PM 79.0 °F - 69.1 °F 72% 30.09 in 10.0 mi WNW 8.1 mph - N/A   Mostly Cloudy
2:53 PM 79.0 °F - 69.1 °F 72% 30.08 in 10.0 mi NW 9.2 mph - N/A   Mostly Cloudy
3:53 PM 81.0 °F 84.1 °F 69.1 °F 67% 30.06 in 10.0 mi West 9.2 mph - N/A   Mostly Cloudy
4:31 PM 80.1 °F 83.2 °F 70.0 °F 71% 30.05 in 10.0 mi SW 5.8 mph - N/A   Mostly Cloudy
4:50 PM 78.8 °F - 69.8 °F 74% 30.06 in 10.0 mi SW 6.9 mph - N/A   Mostly Cloudy
4:53 PM 79.0 °F - 71.1 °F 77% 30.05 in 10.0 mi SW 8.1 mph - N/A   Mostly Cloudy
5:51 PM 78.8 °F - 69.8 °F 74% 30.06 in 10.0 mi WSW 3.5 mph - N/A   Overcast
5:53 PM 78.1 °F - 70.0 °F 76% 30.04 in 10.0 mi WSW 3.5 mph - N/A   Overcast
6:33 PM 77.0 °F - 70.0 °F 79% 30.06 in 10.0 mi SW 4.6 mph - N/A   Scattered Clouds
6:53 PM 77.0 °F - 69.1 °F 76% 30.04 in 10.0 mi SSW 6.9 mph - N/A   Partly Cloudy
7:53 PM 75.0 °F - 70.0 °F 84% 30.04 in 10.0 mi SSE 4.6 mph - N/A   Scattered Clouds
8:53 PM 73.9 °F - 70.0 °F 87% 30.04 in 7.0 mi South 8.1 mph - 0.00 in Rain Light Rain
9:11 PM 73.0 °F - 70.0 °F 90% 30.07 in 6.0 mi Variable 5.8 mph - 0.02 in Rain , Thunderstorm Light Rain
9:22 PM 73.0 °F - 70.0 °F 90% 30.08 in 4.0 mi North 6.9 mph - 0.06 in Rain , Thunderstorm Heavy Rain
9:27 PM 71.1 °F - 68.0 °F 90% 30.09 in 1.8 mi WNW 13.8 mph 18.4 mph 0.19 in Rain , Thunderstorm Heavy Rain
9:29 PM 70.0 °F - 66.0 °F 87% 30.09 in 1.2 mi West 12.7 mph 19.6 mph 0.26 in Rain , Thunderstorm Heavy Rain
9:31 PM 69.1 °F - 64.9 °F 87% 30.08 in 1.0 mi West 15.0 mph 20.7 mph 0.31 in Rain , Thunderstorm Heavy Thunderstorms and Rain
9:40 PM 68.0 °F - 66.0 °F 93% 30.07 in 1.2 mi SW 8.1 mph - 0.43 in Rain , Thunderstorm Heavy Thunderstorms and Rain
9:45 PM 69.1 °F - 66.9 °F 93% 30.07 in 2.0 mi SSW 6.9 mph - 0.45 in Rain , Thunderstorm Rain
9:47 PM 69.8 °F - 66.2 °F 88% 30.07 in 3.0 mi South 4.6 mph - 0.45 in Rain Rain
9:53 PM 69.1 °F - 66.9 °F 93% 30.05 in 5.0 mi SE 5.8 mph - 0.47 in Rain Rain
10:44 PM 69.1 °F - 68.0 °F 96% 30.06 in 8.0 mi ENE 8.1 mph - 0.05 in   Mostly Cloudy
10:53 PM 68.0 °F - 66.9 °F 96% 30.06 in 10.0 mi Calm Calm - 0.06 in Rain Light Rain
11:11 PM 68.0 °F - 66.0 °F 93% 30.07 in 10.0 mi WSW 8.1 mph - 0.00 in Rain Light Rain
11:38 PM 68.0 °F - 66.0 °F 93% 30.07 in 10.0 mi West 4.6 mph - 0.00 in   Overcast
11:53 PM 68.0 °F - 66.0 °F 93% 30.06 in 10.0 mi Calm Calm - 0.00 in   Overcast